Location: Ballingbuur
(53.0000°N, 5.7667°E)
Time: 05:44:26
(UTC+00:00)

Okean O Rocket - Pass Details

Date: 29 November 2020
Orbit: 622 x 645 km, 98.2° (Epoch: 23 January)

Event Time Altitude Azimuth Distance (km) Brightness Sun altitude
Rises 06:12:15 0° 15° (NNE) 2,958 5.0 -10.4°
Reaches altitude 10° 06:14:28 10° 17° (NNE) 2,047 4.2 -10.0°
Maximum altitude 06:18:56 80° 104° (ESE) 660 1.8 -9.4°
Drops below altitude 10° 06:23:24 10° 192° (SSW) 2,039 4.4 -8.8°
Sets 06:25:36 0° 194° (SSW) 2,945 5.2 -8.5°
